Weather in Hà Giang

Vietnam     22˚50′27″N   104˚59′48″E
temp.,
°C
wind,
m/s
gust,
m/s
humid.,
%
clouds,
%
prec.,
mm/h
press.,
hPa
HPBL,
m
16 january, sat
sat1601:00+11˚nw019240 0.0 101422
04:00+10˚n119594 0.0 101522
07:00+12˚nne118797 0.0 101670
10:00+14˚nnw1177100 0.0 1017254
13:00+20˚ssw115891 0.0 1014852
16:00+16˚ssw1274100 0.0 1013255
19:00+14˚wsw118599 0.0 101623
22:00+14˚nw008795 0.0 101923
17 january, sun
sun1701:00+14˚wnw018698 0.1 102023
04:00+14˚nnw1188100 0.2 102223
07:00+13˚ne3593100 4.6 1026486
10:00+10˚n3682100 3.5 1030680
13:00+10˚n2475100 3.6 1029875
16:00+12˚nnw1362100 0.0 10271044
19:00+10˚sw007489 0.0 102922
22:00+8˚w008373 0.0 103023
18 january, mon
mon1801:00+7˚nw118046 0.0 103023
04:00+6˚nw11750 0.0 102822
07:00+7˚nnw017131 0.0 102822
10:00+15˚ese114526 0.0 1026644
13:00+18˚se113852 0.0 10211131
16:00+17˚sse1243100 0.0 1017965
19:00+11˚w116890 0.0 101922
22:00+9˚nw11751 0.0 102022
19 january, tue
tue1901:00+8˚wnw017717 0.0 101922
04:00+7˚wnw00810 0.0 101822
07:00+7˚nnw11840 0.0 101922
10:00+16˚se11510 0.0 1018504
13:00+19˚sse23440 0.0 10141238
16:00+18˚s23490 0.0 10111138
19:00+12˚wsw11760 0.0 101422
22:00+10˚w11820 0.0 101622
20 january, wed
wed2001:00+9˚nw01860 0.0 101622
04:00+8˚nnw00920 0.0 101622
07:00+8˚n019517 0.0 101822
10:00+17˚sse115886 0.0 1018613
13:00+19˚s125491 0.0 1014873
16:00+19˚s135775 0.0 1012950
19:00+13˚w118474 0.0 101523
22:00+11˚wnw119039 0.0 101622